Theta_e
293 287 286 286 289 290 291 291 291 292 290 288 287 287 285 285 286 287 289 292 291 290 287 289 287 286 290 292 292 293 292 293 291 292 292 292 291 291 291 291 291 291 291 293 293 294 294 294 294 295 295 295 296 296 297 297 297 298 298 299 298 300 302 304 305 304 306 307 307 308 307 306 306 308 309 310 310 309 308 308 308 308 307 307 307 306
294 287 286 289 291 292 292 291 290 289 288 287 286 284 285 284 286 288 290 290 291 290 285 284 287 289 290 291 292 293 292 291 291 291 291 291 291 291 290 290 290 291 292 292 292 293 293 293 293 294 294 294 293 294 295 295 296 296 297 297 298 298 299 300 302 302 302 302 303 305 305 306 305 307 307 308 308 307 307 306 306 306 306 306 305 304
286 286 290 292 293 291 290 291 288 288 288 287 285 285 284 286 286 289 290 290 290 291 287 284 287 288 290 289 292 291 291 291 291 291 290 290 290 290 290 290 289 290 290 291 291 292 292 292 293 293 293 293 293 293 294 294 295 295 296 296 297 297 297 298 299 300 300 300 300 301 300 301 301 300 301 302 302 305 306 304 304 305 305 306 306 305
284 285 291 293 291 290 289 289 289 289 289 286 286 284 284 286 286 283 286 288 289 289 287 286 285 287 288 290 290 291 291 290 291 291 290 290 289 289 289 289 289 289 289 289 289 289 290 291 291 292 292 292 293 293 293 293 294 294 294 295 295 296 296 297 297 298 298 298 298 298 299 299 299 297 297 298 299 300 301 302 301 302 301 302 302 301
289 290 293 292 290 290 289 289 288 287 286 285 287 287 286 285 285 286 285 287 287 287 287 285 285 284 286 287 287 289 291 290 290 290 290 290 290 290 289 289 289 288 288 287 288 288 288 289 289 290 291 292 292 292 292 292 293 294 293 294 294 295 295 295 296 297 297 298 298 298 298 298 297 298 297 296 296 296 297 299 299 298 295 296 297 296
288 292 293 290 289 288 289 288 288 288 285 284 285 289 289 288 287 286 286 286 284 283 284 285 278 276 281 284 287 288 288 287 288 288 288 288 289 288 288 288 288 288 288 287 286 287 287 288 288 289 289 290 290 291 292 292 293 293 293 293 294 294 294 294 294 295 296 295 295 295 294 294 293 293 293 293 292 293 294 294 295 297 297 297 298 296
290 293 293 292 289 287 287 287 287 289 284 285 287 288 289 287 286 285 285 285 279 279 284 285 280 275 280 285 286 286 285 286 287 286 287 287 287 287 287 287 287 286 286 287 286 286 286 286 287 287 288 288 288 289 291 292 292 292 293 293 293 293 293 294 294 294 294 294 294 293 292 292 292 291 291 291 292 292 293 294 293 294 295 295 296 296
291 290 290 290 290 288 286 286 288 290 287 284 285 286 286 286 286 285 284 285 281 281 283 284 284 277 275 284 287 287 285 285 285 286 286 286 286 286 286 286 286 286 285 285 285 285 285 286 286 286 287 287 288 288 289 290 290 291 291 291 292 292 292 292 293 293 293 292 292 292 291 291 291 290 290 291 292 292 292 292 292 293 293 293 293 294
290 288 288 288 288 287 288 289 288 290 288 285 287 286 285 286 285 284 286 282 281 282 279 279 283 280 276 282 286 286 284 283 284 285 285 286 286 286 286 286 286 286 285 285 285 285 285 285 285 286 286 287 288 288 288 288 289 290 290 290 290 290 291 291 291 292 292 292 291 291 291 290 290 291 290 291 291 291 291 291 291 291 291 292 292 292
290 291 290 290 288 288 287 285 288 291 288 288 287 287 285 285 284 284 282 283 280 280 275 280 282 278 278 281 284 285 285 283 284 285 285 285 285 284 285 285 285 285 285 285 285 285 285 285 285 285 286 286 287 287 288 287 288 288 289 289 288 288 289 290 290 290 290 291 291 290 289 289 289 289 289 289 289 289 289 289 289 290 290 290 290 291
291 292 293 290 289 289 286 288 287 290 289 288 286 285 284 282 281 280 279 278 277 273 278 282 282 283 276 281 283 284 285 284 285 284 284 284 284 284 284 284 284 284 284 284 284 285 285 285 285 285 285 285 286 286 286 286 286 286 287 287 287 287 288 288 288 288 288 289 289 289 288 288 287 288 287 287 287 287 287 287 287 288 288 288 288 289
288 289 290 289 292 290 289 288 287 286 287 286 284 282 284 282 278 277 273 276 273 271 276 278 281 282 276 277 281 284 284 286 287 284 283 283 283 283 284 284 284 284 284 284 285 285 285 285 285 285 285 285 285 285 285 285 285 285 286 286 286 286 287 287 287 287 287 287 288 288 287 287 287 287 287 286 286 286 286 286 286 286 287 287 287 287
286 288 287 289 292 292 288 287 285 284 284 285 282 282 277 274 274 274 273 273 272 275 278 279 281 280 281 282 284 283 283 284 286 286 285 284 284 283 284 285 285 286 286 286 285 285 285 285 285 284 284 284 284 285 285 284 284 284 285 285 285 285 286 286 286 286 286 286 286 286 287 287 287 286 286 286 285 286 285 285 285 285 285 286 286 286
284 283 287 288 290 291 289 286 282 284 283 283 284 279 276 273 272 267 269 269 271 275 278 281 282 281 281 283 283 283 283 284 286 286 285 284 284 284 284 284 284 285 285 285 284 283 283 283 284 284 283 283 283 283 283 284 284 284 284 284 284 284 285 285 286 286 285 285 286 286 286 286 286 286 285 285 285 285 285 286 285 284 284 284 285 286
278 280 285 288 286 289 291 290 289 283 282 284 282 285 281 273 268 268 268 273 274 275 277 279 278 273 278 281 281 283 283 284 285 285 284 284 284 283 283 283 282 282 283 283 282 282 281 282 282 282 282 282 282 282 283 283 283 283 283 283 283 283 284 285 285 285 285 285 286 286 286 285 285 285 285 285 286 285 285 285 285 285 285 284 285 285
283 283 285 289 289 290 289 289 286 284 284 283 281 282 279 280 279 276 269 269 270 274 274 275 278 277 280 282 283 283 283 283 283 283 284 283 283 282 282 282 282 282 283 283 282 281 281 282 282 282 283 283 283 283 284 284 284 284 284 283 283 283 283 284 284 284 284 284 285 285 285 285 285 285 285 286 286 286 286 286 286 285 285 285 285 286
283 280 285 289 289 289 287 288 289 287 282 283 284 279 281 283 284 274 273 275 274 271 275 272 279 281 282 282 282 282 282 282 282 282 282 282 282 281 281 282 281 282 281 281 281 280 281 282 282 283 283 284 285 285 285 285 285 284 284 283 284 284 284 284 284 285 286 286 286 285 286 286 285 285 285 285 286 286 286 286 286 286 286 286 286 287
283 280 284 286 287 290 286 287 286 285 286 284 280 283 284 284 282 279 273 269 265 270 272 273 276 277 279 274 280 280 279 280 280 280 281 281 280 281 282 281 281 281 281 281 281 281 282 282 283 284 284 283 284 285 286 286 286 286 286 285 285 285 285 286 286 286 286 286 286 286 286 286 286 285 285 285 285 285 285 285 285 285 285 285 286 285
288 281 283 286 286 288 287 289 288 287 288 284 282 284 285 277 276 277 271 269 268 267 267 273 275 277 279 279 278 279 279 280 280 280 280 281 281 281 281 281 281 281 281 281 281 282 282 283 284 285 285 286 286 287 287 287 287 287 287 286 286 285 286 286 287 286 286 286 287 286 285 284 284 284 284 285 285 285 285 285 285 285 285 285 285 285
288 281 280 286 287 288 285 285 281 283 287 285 286 285 283 280 275 274 279 272 272 266 268 267 272 276 279 281 281 283 282 281 281 280 281 282 282 282 281 281 281 282 282 283 284 284 285 285 285 286 286 286 286 287 287 287 287 286 286 286 285 286 285 285 286 286 285 286 286 286 285 285 285 284 284 284 284 284 284 284 284 284 284 284 284 284
287 285 276 282 284 287 283 285 282 284 282 283 283 280 283 281 281 280 279 276 274 268 269 272 273 274 278 281 282 284 284 283 282 282 282 282 282 282 283 283 283 283 284 285 285 286 286 286 285 286 285 286 285 286 286 286 285 286 285 285 285 285 284 284 284 284 284 284 284 284 283 283 282 281 281 282 283 283 283 283 284 283 283 283 284 283
284 284 282 281 284 282 282 285 287 285 287 284 285 282 284 280 277 276 276 280 274 277 272 274 274 280 282 285 283 283 283 283 283 282 282 282 284 284 284 285 285 285 286 286 286 286 286 286 286 285 285 284 284 283 284 285 284 284 285 284 284 283 283 283 283 283 283 282 282 282 281 280 280 280 281 280 280 281 281 282 282 282 282 283 283 284
288 282 281 281 283 286 286 288 286 287 286 284 286 283 284 282 281 276 275 275 275 277 279 275 275 280 282 282 283 283 284 284 284 284 284 285 284 285 286 286 287 287 287 287 287 286 286 286 285 285 285 284 283 283 282 283 284 284 284 284 284 284 283 283 282 282 282 282 281 281 280 279 279 279 279 278 279 279 279 280 280 280 280 281 281 282
291 281 281 282 281 282 285 286 287 285 289 288 285 282 283 283 283 282 281 277 275 274 276 277 276 281 285 284 283 283 283 284 285 285 286 286 285 286 286 286 287 287 287 287 286 286 286 284 283 282 282 282 282 282 282 281 281 282 282 282 282 282 281 280 280 281 281 280 280 278 278 279 278 278 278 278 279 278 279 279 279 279 279 279 279 280
283 281 281 277 278 280 281 284 285 286 284 282 282 283 283 283 281 279 278 278 278 280 281 277 273 281 284 281 283 283 283 284 285 286 287 286 287 286 286 286 286 286 285 284 284 284 283 283 282 282 282 282 281 281 280 280 280 279 278 278 278 278 278 279 278 279 279 278 278 278 278 278 278 277 278 278 278 278 278 278 279 279 279 279 279 279
284 282 282 276 276 275 273 271 271 277 283 281 279 281 283 282 281 280 277 278 277 282 282 279 279 284 284 281 283 283 283 283 284 284 284 284 285 285 285 285 284 284 283 283 283 282 282 281 281 280 280 280 280 280 279 278 278 279 279 279 278 279 279 279 278 278 278 278 278 278 277 277 277 277 277 277 277 277 278 278 278 278 278 278 278 278
280 282 282 282 281 279 279 273 279 281 280 276 279 281 280 281 281 281 280 278 277 280 278 280 280 279 282 281 279 279 278 282 284 283 283 284 283 282 282 282 281 281 281 281 281 281 280 279 279 279 279 279 278 277 277 278 278 278 279 279 278 278 278 278 277 277 277 277 276 276 276 276 276 276 276 276 276 277 277 277 277 277 277 278 277 277
278 280 281 278 280 279 279 280 282 283 281 280 279 279 281 280 278 278 278 276 281 276 274 281 280 277 280 283 282 281 281 281 282 283 283 282 282 282 281 280 282 279 279 279 279 279 279 280 280 279 278 277 277 277 278 278 278 278 278 278 277 276 276 277 276 275 275 275 275 274 274 274 274 275 275 275 275 275 275 275 275 275 275 275 275 275
281 279 277 281 279 280 281 282 282 282 282 281 281 280 281 282 279 275 274 279 279 277 276 281 280 276 279 282 281 281 283 283 284 284 285 286 284 280 279 279 279 279 278 278 278 278 279 279 279 277 276 277 277 278 277 278 277 277 277 276 275 275 275 275 274 273 273 273 273 273 273 273 273 273 273 273 273 273 273 273 273 273 273 273 273 273
278 274 277 279 277 279 279 279 281 279 278 278 279 279 280 280 280 279 278 279 279 278 280 280 279 279 281 282 282 280 281 283 283 283 282 282 282 281 280 279 279 278 278 278 278 278 278 277 276 276 277 277 277 277 277 277 276 276 275 274 274 274 274 273 273 272 272 272 272 272 273 273 273 272 272 273 272 272 272 271 271 271 271 270 271 271
284 277 280 274 271 268 272 277 278 279 278 277 278 278 279 278 278 278 278 278 278 277 279 279 278 278 283 283 281 279 277 279 279 279 281 282 282 280 280 279 279 278 278 278 278 277 277 277 277 277 277 277 277 277 277 276 275 274 273 273 273 272 273 272 272 271 271 271 272 272 272 272 271 272 271 271 271 270 270 270 269 269 268 268 268 268
280 273 273 268 269 266 269 274 275 275 274 272 274 277 277 277 275 278 276 278 276 275 277 275 273 276 282 280 279 278 276 277 278 279 279 279 279 280 279 279 279 278 278 277 277 277 277 277 277 277 277 277 276 276 276 274 273 273 272 272 272 271 272 271 271 270 270 270 271 271 270 271 271 270 270 269 269 269 268 268 267 266 266 266 266 267
276 273 271 266 267 264 268 270 273 267 268 270 272 275 276 277 278 278 278 278 279 280 274 272 274 279 279 279 279 278 276 276 275 275 275 276 278 279 279 279 278 277 277 277 277 277 277 277 277 277 277 276 275 274 274 273 272 271 271 271 271 270 270 270 270 269 269 270 269 269 270 270 269 268 267 267 267 266 266 265 265 265 265 264 265 265
275 277 270 270 268 265 268 269 269 266 262 267 275 277 277 276 276 275 275 277 278 279 275 278 278 277 275 277 278 279 278 276 275 276 275 278 277 276 277 277 277 277 277 277 277 277 277 277 277 277 276 275 274 273 272 272 271 271 271 270 270 269 269 269 269 268 268 268 268 268 268 267 266 265 265 265 265 265 264 264 263 264 264 264 264 264
279 279 276 275 273 270 268 269 269 266 267 273 275 276 277 277 276 276 277 277 277 275 278 277 277 276 277 279 280 281 280 276 274 276 277 275 276 276 277 276 276 276 276 276 276 277 277 277 276 275 273 273 272 272 271 270 270 270 269 269 268 269 268 267 267 266 267 266 267 266 265 265 264 264 264 264 263 263 263 263 263 263 263 263 263 263
278 278 275 276 274 272 269 270 263 265 275 275 276 274 276 276 275 275 273 276 276 276 277 276 277 278 278 278 277 275 275 275 275 276 275 275 275 276 275 276 276 276 276 277 277 277 277 276 276 274 273 272 271 270 270 269 269 268 268 268 267 266 266 266 264 265 265 265 265 264 265 264 263 263 262 263 262 262 262 262 262 261 262 262 262 262
282 278 277 273 277 269 271 270 270 270 273 275 275 274 274 274 272 272 267 273 276 276 276 276 277 277 276 275 274 274 274 273 273 276 277 276 276 276 277 277 277 277 278 277 278 278 278 276 274 273 272 271 270 269 268 268 267 266 266 265 265 265 265 264 263 264 264 264 264 263 263 263 263 262 262 262 261 261 261 261 261 261 261 261 261 261
280 278 276 275 269 273 267 267 263 260 263 269 271 274 276 276 276 275 274 269 273 268 271 276 276 275 273 273 274 274 274 274 271 273 276 277 276 276 276 277 277 277 277 278 277 276 274 273 273 272 270 269 268 268 267 266 266 265 264 264 264 264 263 263 263 263 263 263 262 263 263 263 262 261 261 260 260 260 261 261 261 260 261 260 260 260
278 279 276 276 271 272 267 267 266 263 265 272 272 276 277 275 276 274 270 266 272 271 271 272 272 272 274 274 273 273 272 267 270 274 276 275 276 276 277 276 277 277 277 277 277 274 272 272 271 270 269 268 266 266 265 265 264 264 263 263 263 263 262 262 263 262 262 262 263 263 262 262 261 261 260 260 260 260 260 260 260 260 260 260 259 259
275 274 275 274 272 272 270 268 266 268 265 268 268 273 275 274 275 270 260 259 267 270 269 273 273 272 273 274 274 274 273 265 271 275 276 276 277 277 277 277 276 275 275 274 274 273 272 271 270 268 268 266 266 265 264 263 263 262 263 262 263 261 261 262 262 263 263 263 263 261 261 261 260 260 260 260 260 260 260 260 259 259 259 259 259 259
271 269 273 271 273 273 274 270 271 270 272 268 272 273 273 275 271 263 264 265 271 272 272 273 274 275 275 273 274 270 274 278 278 276 276 277 275 275 275 276 277 277 275 273 273 274 271 271 270 269 267 266 265 264 263 262 261 261 261 262 261 260 261 262 262 262 262 262 261 261 260 260 260 259 259 259 259 260 259 259 259 259 259 258 258 258
262 265 267 271 270 271 271 270 270 273 274 271 271 275 275 273 264 266 271 271 273 273 273 275 275 275 275 275 275 277 278 277 274 275 274 275 277 277 276 275 273 272 272 272 273 271 269 268 267 265 265 264 264 263 262 261 260 261 261 260 259 260 262 262 262 261 259 260 260 260 259 258 259 259 259 259 258 258 258 259 259 258 258 258 258 257
268 266 264 269 270 270 269 267 267 263 273 277 276 274 276 268 269 274 274 274 274 274 274 273 275 275 275 275 276 277 276 274 275 275 275 275 275 276 274 273 273 272 272 270 270 269 268 266 265 265 264 263 262 263 262 258 258 258 259 259 260 261 261 261 260 260 260 259 259 258 258 258 257 258 258 258 258 257 257 258 258 258 258 257 257 257
270 260 256 262 270 264 268 265 266 273 274 275 277 271 271 277 276 275 276 276 275 274 274 274 274 275 276 277 276 276 275 275 274 273 273 274 275 275 274 274 274 272 271 269 269 268 266 266 264 264 263 262 262 261 261 258 257 257 257 259 261 260 260 259 259 257 257 257 257 257 257 257 257 257 257 257 257 257 257 257 257 257 257 257 256 256
272 269 267 266 268 266 265 268 273 275 276 276 278 277 276 278 278 275 276 277 275 275 275 274 276 276 275 276 276 276 276 275 276 276 275 275 275 275 274 273 273 272 270 269 267 266 264 265 263 262 261 262 260 259 258 258 257 257 256 259 260 258 258 257 255 255 256 256 256 256 256 256 257 257 257 257 257 256 257 257 257 256 257 256 256 256
271 273 273 272 269 272 272 272 274 274 273 274 278 278 278 277 275 275 276 276 275 277 276 276 277 276 276 276 275 275 275 276 275 275 274 275 275 275 274 272 270 269 268 266 264 264 262 261 260 259 259 259 259 259 258 257 257 255 257 259 259 257 257 255 254 255 256 256 256 256 256 256 256 256 256 256 257 256 257 257 257 256 256 256 256 256
272 273 271 269 270 268 264 272 273 275 274 274 278 279 277 275 276 276 276 277 278 277 276 277 278 278 277 276 276 277 277 276 275 275 275 274 273 273 272 271 270 268 267 265 264 262 260 258 259 258 257 256 257 257 256 256 255 257 257 256 258 258 255 254 254 255 255 255 256 256 256 255 256 257 257 256 257 257 257 257 256 256 256 256 256 256
271 274 271 272 270 270 269 272 273 276 276 276 277 277 277 278 277 276 277 277 278 277 277 277 276 275 275 274 275 275 276 277 275 275 274 274 273 272 271 271 269 266 265 264 263 260 259 259 259 257 256 257 258 258 257 256 256 256 256 255 257 254 253 254 254 255 255 255 255 255 255 255 257 257 256 256 256 256 256 256 256 256 256 256 257 257
274 273 264 268 271 270 274 275 275 274 274 275 275 275 277 277 277 277 276 276 276 276 276 275 275 277 276 277 277 276 275 276 275 275 274 273 272 271 271 270 268 267 263 262 260 259 261 258 257 257 257 257 258 257 256 255 255 255 256 258 256 254 253 254 255 255 254 254 255 255 256 256 256 256 256 256 256 256 256 256 256 257 258 260 261 261
272 272 273 269 267 266 269 273 275 267 270 276 277 278 277 277 276 276 276 274 275 275 275 275 275 275 276 277 277 276 275 276 275 274 273 273 273 272 270 268 265 263 262 261 260 259 258 257 256 256 256 257 258 256 255 255 255 255 257 255 254 253 252 254 254 253 254 254 255 255 255 255 255 255 255 255 255 256 256 260 264 263 262 261 265 268
274 275 274 270 270 270 275 277 277 277 276 277 278 278 276 277 276 276 276 276 277 276 277 276 276 276 273 273 274 275 275 275 275 274 273 273 272 271 269 267 264 263 261 260 258 256 256 256 256 255 255 256 256 255 255 255 255 254 255 256 255 254 253 252 253 253 254 255 254 255 256 255 255 255 255 255 256 256 256 256 258 264 266 267 267 268
Wind_Speed
2 4 6 8 10 10 9 12 13 10 4 2 1 1 6 5 6 4 4 8 1 3 4 5 4 4 9 10 7 8 6 10 5 9 7 6 7 8 8 7 8 9 7 4 6 7 8 10 10 9 9 9 12 13 13 14 13 13 11 13 13 9 10 9 9 8 7 7 5 7 7 5 5 5 6 7 6 6 5 6 6 5 5 4 4 3
3 5 8 11 11 12 13 9 5 3 2 4 4 4 8 4 9 5 5 2 4 1 3 1 3 8 10 6 7 6 11 12 7 7 8 8 8 7 7 7 7 5 4 6 10 10 10 11 11 10 10 12 15 13 13 13 11 11 13 13 10 10 10 10 7 6 7 5 5 6 5 6 6 7 8 7 6 6 6 6 6 5 5 5 5 5
2 7 11 14 12 2 2 1 4 6 5 1 4 4 4 8 3 9 7 2 2 0 6 2 3 7 10 4 6 10 10 7 8 6 4 7 7 6 7 6 6 7 7 8 9 10 10 11 11 10 10 10 10 11 12 11 13 13 12 11 11 11 10 10 9 8 6 5 5 6 4 5 5 4 4 5 4 5 7 7 6 7 7 7 6 6
3 5 15 14 2 4 4 3 3 1 1 2 3 1 8 3 1 6 4 3 3 1 3 2 4 8 3 7 9 7 6 7 7 9 9 7 9 8 7 5 5 7 7 10 9 9 9 9 9 10 11 11 11 12 13 12 12 11 11 11 12 11 11 11 10 9 6 6 5 7 7 8 9 5 6 7 8 8 7 7 6 6 6 6 6 7
11 8 3 1 4 6 7 6 3 2 6 3 5 7 5 3 4 7 5 2 3 2 1 3 4 6 3 3 3 3 5 7 6 7 7 7 7 6 5 7 7 7 7 8 8 9 9 11 12 11 11 10 12 12 12 11 10 8 11 11 11 11 10 10 11 11 9 10 10 8 9 9 10 12 11 11 10 9 8 8 8 7 4 4 5 5
7 9 1 3 3 5 5 7 5 5 4 3 6 10 8 5 5 4 2 4 7 4 2 2 5 3 2 2 4 4 2 5 3 6 7 6 6 5 7 7 6 7 6 6 7 8 8 9 9 12 12 13 11 12 10 9 10 11 11 12 12 11 11 11 11 11 11 11 11 11 11 10 9 10 10 10 8 9 9 7 6 10 10 9 7 6
8 6 4 6 5 4 5 6 4 7 5 0 7 7 7 5 3 2 0 2 2 2 1 2 1 7 7 5 5 2 4 5 3 5 5 5 5 5 5 5 5 6 6 7 8 8 9 9 10 12 12 11 12 10 8 9 11 12 11 11 12 11 10 11 11 12 10 11 10 10 9 8 7 7 6 4 6 7 7 9 11 9 11 11 11 10
2 3 4 4 5 4 4 5 5 9 6 5 2 4 5 5 2 1 2 2 4 1 5 1 3 4 4 9 4 6 6 4 4 4 4 4 4 4 4 4 5 6 4 5 7 7 7 8 9 11 9 9 9 7 8 9 10 12 11 11 11 10 11 11 10 12 11 11 9 10 10 9 9 8 6 7 7 7 8 11 10 9 9 11 11 11
3 2 3 5 5 6 8 6 4 8 6 4 3 6 3 3 2 2 1 2 1 1 7 4 0 1 4 7 1 7 5 3 3 3 3 3 3 3 4 5 5 5 5 4 6 7 7 8 9 8 9 7 9 9 10 9 9 9 10 11 12 13 12 11 13 12 12 11 10 10 9 10 7 7 7 6 8 9 8 11 10 10 9 10 10 10
2 2 4 7 6 8 5 1 6 10 5 2 5 4 4 4 3 2 2 1 1 1 6 5 3 3 7 5 3 0 2 5 6 5 4 3 3 3 3 4 5 4 5 5 5 5 6 6 7 6 6 9 8 7 8 8 8 9 9 11 14 14 11 10 12 12 13 12 11 13 12 12 10 8 8 9 10 9 8 10 10 9 9 9 10 10
1 4 4 4 5 5 4 1 1 1 2 4 5 2 3 6 2 3 5 2 2 3 7 9 8 7 5 4 6 6 5 3 8 3 3 3 3 3 3 3 3 4 4 4 4 5 5 4 6 6 9 7 8 7 7 8 7 6 9 10 14 11 10 11 11 12 12 11 11 11 12 12 12 11 11 12 12 10 11 10 10 9 8 8 8 8
3 2 0 2 2 3 4 3 4 2 2 4 2 2 4 3 6 3 3 4 1 7 6 3 7 4 6 5 3 2 6 4 15 14 11 9 5 4 3 3 3 3 3 3 4 4 4 6 7 6 8 7 6 6 7 7 7 8 8 9 13 12 11 11 11 13 12 11 11 11 11 12 10 10 9 11 11 10 10 9 9 8 9 10 8 9
3 7 2 5 3 7 1 4 2 4 3 5 5 6 3 4 5 2 2 1 5 6 2 1 5 2 9 6 3 6 6 6 1 10 14 12 8 5 4 3 3 2 2 3 3 3 4 5 5 6 5 6 7 8 8 8 7 8 9 10 14 12 10 10 10 12 11 12 11 11 11 10 9 10 10 9 9 7 8 8 9 10 9 8 10 10
6 2 2 4 3 3 6 6 1 0 0 6 5 5 5 1 2 4 5 2 5 6 4 3 1 3 3 2 4 4 4 3 6 8 7 8 9 7 5 4 3 2 1 2 3 3 3 3 3 4 6 6 6 6 7 7 8 7 8 9 12 9 8 7 9 9 11 11 9 9 9 8 7 8 8 7 8 7 6 6 7 7 7 7 7 7
1 4 6 5 4 2 6 9 9 6 7 8 3 9 8 8 5 4 3 5 5 5 2 4 1 5 3 1 4 3 3 3 6 8 6 5 6 5 4 4 3 2 1 1 2 3 3 3 3 4 5 6 5 5 6 6 6 7 8 8 9 9 8 8 8 8 10 8 8 8 8 7 6 6 6 5 5 5 6 6 6 6 6 7 6 7
5 5 5 3 2 6 8 2 6 5 4 1 3 5 5 6 4 4 4 2 2 3 4 2 5 1 2 0 1 2 3 5 4 7 7 7 4 4 4 4 4 3 3 3 3 4 4 3 3 4 5 5 4 5 5 6 5 7 6 6 7 7 6 6 7 7 6 6 5 5 6 6 5 5 4 4 4 4 4 4 5 4 3 4 4 5
2 3 1 4 3 5 4 3 1 3 5 3 4 4 6 3 4 1 2 1 2 2 9 2 5 0 0 1 1 1 4 2 3 4 5 5 4 4 5 4 4 4 3 3 4 4 4 3 3 4 4 4 5 5 6 6 6 7 6 7 7 6 6 7 7 6 6 5 6 5 5 5 5 5 6 5 4 4 3 3 4 4 4 3 4 4
5 5 1 3 4 2 1 1 3 3 3 7 2 7 2 2 3 4 4 3 2 4 7 2 7 2 2 6 1 0 2 3 3 4 4 4 4 6 5 5 5 4 4 3 3 3 3 3 4 4 4 4 4 4 5 5 4 4 5 6 6 7 8 7 7 7 7 7 7 7 7 6 5 5 4 4 4 3 3 3 3 4 5 5 5 5
4 4 4 2 2 3 1 3 2 2 1 2 2 2 3 3 1 2 4 3 2 3 5 4 1 3 8 6 2 6 8 10 7 5 6 8 8 8 6 5 4 3 3 4 4 3 3 4 4 4 4 4 4 4 3 3 4 4 4 4 4 5 4 4 5 5 5 6 5 4 5 5 5 4 4 4 5 5 6 7 6 6 5 5 4 6
1 3 5 1 2 0 1 4 6 3 1 1 1 2 1 2 3 4 5 4 3 4 2 7 3 9 4 5 14 12 14 12 10 8 12 12 9 7 6 6 6 5 5 5 4 4 4 4 4 4 4 4 3 3 3 3 3 4 3 4 4 4 4 5 6 5 5 4 4 5 5 5 4 4 3 4 4 6 6 6 7 8 8 8 7 7
2 2 4 1 2 1 2 2 6 9 6 1 1 1 0 0 2 3 1 4 4 2 4 5 9 4 2 2 8 10 10 15 17 16 11 8 7 7 8 8 7 6 6 6 5 5 5 5 4 3 3 2 2 2 3 3 3 2 3 3 3 4 3 4 3 3 3 3 4 4 5 5 5 6 5 6 6 6 6 6 6 6 6 6 9 8
1 1 7 0 1 4 6 3 4 4 6 7 9 8 8 5 1 3 9 2 1 3 4 4 12 7 2 0 2 4 3 10 10 7 7 7 11 10 7 7 7 7 7 7 6 6 5 5 4 3 2 3 3 3 3 2 3 3 2 1 2 2 1 0 2 1 2 2 2 3 4 5 5 6 7 7 8 8 8 8 8 8 9 9 9 9
3 2 2 6 7 8 3 1 1 2 3 3 6 5 5 2 4 2 7 6 0 4 0 3 4 9 0 4 4 3 5 9 10 11 12 11 10 9 8 7 7 7 8 7 7 6 5 4 4 4 4 4 4 3 3 1 1 1 1 0 0 0 1 0 2 2 2 3 3 4 4 4 4 5 6 6 6 6 7 7 8 7 8 8 9 8
6 1 3 4 3 3 2 2 4 3 1 1 1 2 4 4 5 7 5 3 3 2 1 2 6 3 1 1 2 2 3 6 8 10 12 9 7 6 7 7 8 7 6 5 5 5 5 4 3 3 4 4 3 4 3 2 1 1 1 1 0 1 2 4 4 5 4 4 4 3 4 4 4 4 4 5 5 5 6 6 6 5 5 6 6 7
2 3 6 1 2 3 3 2 4 2 3 1 1 1 1 2 3 2 4 1 1 6 5 3 10 6 0 2 2 3 4 6 8 6 4 7 7 7 7 7 7 7 6 6 7 6 5 5 5 5 4 4 3 3 3 1 1 3 4 4 3 3 2 3 3 4 4 3 3 3 3 3 3 4 4 4 4 5 5 5 5 5 5 6 6 6
3 3 5 4 8 8 6 4 3 5 7 2 0 1 0 4 4 3 3 3 6 2 6 6 11 3 1 2 0 0 2 4 3 4 3 4 6 7 6 6 7 7 7 7 7 6 7 7 5 4 4 4 3 1 3 3 3 3 4 5 3 4 5 5 4 3 3 2 1 2 3 3 4 4 4 5 4 5 5 5 5 5 4 5 7 7
2 1 3 6 8 11 8 3 2 2 2 2 2 2 3 2 2 2 2 2 6 2 5 7 6 4 10 2 3 5 3 7 7 5 6 6 6 5 5 6 7 7 8 8 8 7 5 5 6 6 6 1 3 3 3 4 4 4 4 5 5 4 4 3 3 2 3 2 3 4 5 6 6 6 5 5 6 6 6 6 6 6 7 7 7 9
2 1 5 4 5 3 4 3 3 2 2 2 2 6 6 6 4 5 7 6 3 2 11 9 5 5 11 11 7 7 6 6 5 5 6 5 5 9 8 6 6 5 5 5 6 6 7 8 6 5 1 3 4 4 4 3 4 4 4 4 3 3 3 3 3 3 3 4 4 4 4 4 4 4 5 5 5 5 5 6 6 7 8 8 9 9
4 5 2 3 4 4 3 5 1 1 2 2 5 7 10 9 5 8 5 6 6 10 15 11 4 4 6 11 4 7 8 10 10 10 11 11 6 3 5 7 9 8 7 7 8 7 7 8 6 3 4 4 4 4 4 3 3 3 3 3 3 4 5 3 4 4 3 3 4 4 4 4 3 4 4 5 5 6 6 7 7 7 7 7 8 8
4 3 3 1 3 1 1 3 4 5 2 3 7 11 11 11 12 6 7 10 13 10 10 10 9 14 14 14 4 5 8 8 6 5 2 3 7 9 9 9 9 9 9 9 8 8 7 5 4 5 6 5 5 5 4 3 3 3 4 4 3 4 4 4 5 6 7 8 8 8 9 9 9 9 9 9 10 10 10 10 10 10 11 10 9 10
3 4 6 1 1 3 4 2 2 3 5 8 10 11 12 8 5 8 9 9 5 6 11 13 13 16 15 3 2 4 3 1 1 4 9 8 7 8 10 10 10 9 8 8 7 6 5 5 6 7 6 6 5 5 4 4 4 3 4 4 4 5 4 4 5 5 6 7 7 8 9 9 9 9 10 10 11 10 12 13 12 12 12 12 12 13
2 4 4 2 2 4 2 0 1 2 1 4 9 14 11 7 10 11 10 6 6 12 12 6 7 12 13 2 1 1 2 5 7 8 6 5 6 8 10 10 9 8 7 8 7 7 7 8 8 8 8 7 5 5 5 4 4 4 5 3 4 3 3 4 4 5 6 5 6 6 7 7 7 8 8 9 9 10 10 11 12 12 12 12 13 12
3 5 3 2 1 3 3 1 0 3 4 10 16 19 12 13 14 7 5 6 12 9 5 8 12 10 8 5 5 4 4 5 6 5 4 4 5 8 9 9 9 7 8 9 9 9 9 10 9 8 7 5 5 5 3 4 4 4 2 3 2 2 3 3 4 4 5 5 5 5 6 6 6 6 7 7 8 8 9 10 11 11 11 12 11 11
4 6 3 2 4 2 1 1 2 3 5 15 2 3 8 8 9 11 13 15 11 6 7 7 8 5 3 4 7 9 7 7 7 7 4 8 8 6 6 7 8 8 8 8 9 10 8 6 5 5 5 5 5 6 5 4 5 3 2 1 2 3 3 4 5 4 4 4 4 4 4 6 5 6 7 7 8 8 9 9 9 9 9 10 10 10
5 3 5 2 4 4 2 3 3 11 16 5 2 2 3 5 6 11 11 8 7 6 9 8 8 6 9 9 9 10 7 3 3 4 2 3 6 7 7 6 7 8 9 9 7 7 8 8 7 6 7 7 7 6 6 5 3 2 2 2 4 3 4 3 3 3 4 3 3 3 4 6 5 6 7 7 8 8 8 9 9 10 8 9 9 10
5 6 3 0 4 3 4 6 5 12 7 7 10 3 1 1 3 0 7 8 10 10 11 9 10 11 9 9 6 2 4 3 1 1 2 3 5 6 6 7 7 8 9 9 11 10 9 9 10 9 8 6 6 5 4 4 2 2 1 2 2 2 3 2 3 4 3 2 3 3 5 4 5 6 6 8 8 8 10 9 9 10 10 9 8 8
9 2 4 4 3 7 4 8 13 7 14 15 15 4 5 6 4 7 6 9 7 5 7 7 9 9 7 4 0 3 2 3 2 1 2 4 4 5 7 7 9 10 9 7 8 10 8 6 6 7 8 6 5 5 4 3 2 2 1 2 2 2 2 2 2 3 2 2 3 4 4 5 6 7 7 7 8 9 9 10 10 9 7 10 10 9
5 10 4 6 5 6 5 6 4 2 8 14 4 1 1 1 2 4 3 7 5 2 4 7 8 6 2 3 4 3 3 3 2 5 3 2 2 4 2 4 6 7 6 7 3 3 5 5 6 6 8 8 6 4 3 2 2 2 2 2 2 1 2 1 3 3 2 3 4 5 5 5 5 7 8 8 9 10 10 9 9 9 7 9 11 11
3 1 3 9 3 2 3 8 9 7 10 5 2 1 0 2 5 3 1 7 4 1 3 4 2 3 7 8 5 4 3 3 7 7 6 4 3 4 7 6 8 7 7 9 11 10 7 7 8 8 7 7 6 3 2 3 3 3 1 1 1 1 2 3 3 2 3 4 4 5 4 5 6 7 8 9 9 9 10 10 10 9 8 8 8 10
5 1 4 5 7 9 7 7 10 5 7 3 3 1 2 2 3 4 2 8 2 3 4 5 5 5 6 7 7 7 8 7 7 9 5 8 7 6 8 9 5 4 4 4 4 7 8 8 9 6 6 6 5 3 3 2 3 1 1 2 1 2 3 4 3 2 3 4 5 4 5 5 6 7 8 10 10 9 9 9 9 9 9 9 7 9
4 1 5 13 12 13 15 8 4 6 4 3 5 6 2 2 3 2 11 6 3 5 5 6 7 9 8 7 7 7 9 10 8 5 6 6 3 3 3 3 6 8 10 9 8 7 8 6 7 8 7 6 5 3 3 3 2 1 2 2 2 4 4 3 3 3 4 5 5 5 6 5 5 9 9 8 10 10 9 8 9 10 9 10 9 8
3 2 4 2 10 11 8 8 10 7 6 6 5 5 5 3 4 11 5 3 7 7 7 9 8 8 8 11 10 10 11 8 2 1 3 5 9 7 6 5 5 3 3 3 7 8 7 6 6 6 6 4 4 4 3 3 2 1 2 1 4 4 3 3 3 4 4 4 5 6 6 6 7 7 8 8 8 10 10 9 8 9 10 9 9 11
10 8 7 9 3 1 2 7 5 10 4 9 8 2 2 5 6 4 3 2 5 5 8 7 8 7 9 9 11 11 8 3 6 6 6 6 6 7 6 8 8 10 10 8 6 4 8 7 7 7 6 4 4 4 3 3 1 2 2 4 5 3 3 3 3 4 4 5 6 6 7 7 7 8 7 8 8 9 11 10 9 9 8 10 10 10
5 5 3 4 5 6 8 9 10 8 2 4 10 7 5 10 6 4 4 4 2 4 5 6 6 8 10 11 12 10 8 6 4 4 4 5 6 6 4 6 7 6 6 4 6 9 6 7 6 6 4 4 4 3 3 3 2 3 3 5 3 2 2 2 3 4 5 6 6 7 7 7 8 8 7 8 9 8 10 10 9 9 8 9 9 10
7 9 7 5 4 8 8 6 4 4 5 7 9 7 6 8 6 7 5 6 6 5 5 5 8 8 9 10 8 9 8 9 9 8 9 9 10 9 8 10 11 12 12 12 9 6 5 9 7 6 4 4 3 3 3 3 3 3 4 3 1 2 3 4 4 4 6 7 7 7 7 7 7 8 7 8 7 9 9 10 8 9 7 7 8 9
3 3 1 3 4 2 4 5 2 3 2 5 8 6 7 7 4 5 7 6 5 7 7 9 8 9 9 9 9 7 8 8 8 7 7 7 8 9 6 5 5 5 5 6 5 7 5 6 6 5 5 4 4 3 3 3 4 4 4 1 2 3 3 4 4 5 7 7 7 8 7 8 8 7 8 8 6 7 8 9 9 8 9 8 8 8
5 2 2 3 3 4 5 2 5 6 3 4 10 10 6 4 4 6 6 6 7 6 6 6 9 10 10 9 11 12 12 10 9 9 8 7 7 8 8 9 9 11 12 11 9 9 7 6 6 5 5 4 4 4 4 3 3 4 3 3 3 3 3 3 4 6 6 7 7 7 6 7 7 7 6 6 6 6 7 7 7 8 8 8 9 9
6 3 3 7 5 6 8 5 9 9 7 7 8 8 8 10 9 6 8 7 8 6 7 10 8 7 5 5 9 10 12 10 9 10 8 9 9 8 8 8 9 7 5 7 9 7 6 6 6 5 4 4 4 4 3 3 4 3 3 3 3 4 3 4 4 6 6 7 7 7 6 7 7 8 7 7 6 8 8 7 7 7 8 9 10 10
4 3 4 4 6 4 4 8 9 4 5 8 8 6 8 8 8 8 7 8 7 8 8 6 5 9 7 11 10 9 10 11 9 10 10 8 6 6 8 9 9 9 9 9 7 7 7 5 5 4 4 3 3 3 2 3 3 3 3 3 3 3 3 5 5 5 6 7 6 7 5 6 6 7 7 8 7 7 7 9 9 9 10 9 8 9
2 10 5 4 5 3 8 12 5 3 7 10 13 14 12 10 8 9 7 6 7 8 9 9 9 9 9 10 9 9 10 11 10 8 9 9 9 9 7 7 6 8 6 5 6 5 4 5 4 3 3 3 3 2 2 4 4 3 3 3 4 3 4 4 4 4 6 6 6 6 6 6 6 6 7 7 8 9 9 10 17 14 11 10 16 23
11 15 8 9 8 11 13 13 10 10 9 12 13 8 6 7 8 10 11 12 11 11 10 10 11 10 7 10 9 10 11 11 11 8 7 6 8 7 8 10 10 8 8 7 6 4 4 3 3 3 2 3 2 3 3 4 4 3 4 4 4 4 4 4 4 4 5 5 5 6 7 6 7 6 6 7 7 7 9 11 13 19 20 19 20 21
Wind_Direction
129 135 171 206 223 213 214 205 210 226 215 272 6 277 263 259 273 276 276 259 40 319 251 264 303 288 294 295 333 344 23 24 33 91 85 77 74 67 63 61 57 52 40 4 21 25 21 22 21 20 23 23 35 30 29 36 34 36 37 43 37 22 28 36 40 39 42 46 44 49 53 61 29 38 50 49 39 46 41 32 27 28 33 37 40 45
79 174 228 224 219 212 217 220 233 287 270 235 264 281 279 255 267 252 258 324 331 138 287 301 344 297 287 323 7 4 47 31 32 76 81 83 72 66 63 58 52 51 44 30 32 25 26 25 24 27 30 27 35 22 30 34 32 33 35 42 37 29 32 32 28 41 51 38 76 94 84 86 49 42 43 44 33 36 36 38 34 32 32 36 44 34
149 194 232 230 227 251 309 169 178 201 237 198 210 244 289 269 265 278 275 306 259 216 261 308 319 286 287 26 30 50 59 51 34 42 54 80 76 68 60 60 54 54 45 38 37 31 29 27 28 34 33 34 37 35 34 28 35 31 33 33 36 32 32 28 26 35 37 32 31 57 51 64 88 72 85 84 48 44 53 44 38 31 25 21 23 30
220 291 247 244 145 207 273 220 178 168 130 212 259 216 242 238 308 300 284 333 332 87 274 327 304 278 292 83 64 35 66 72 56 57 54 49 69 65 54 49 61 56 47 44 31 28 25 28 33 36 36 30 34 33 31 27 32 35 34 33 35 34 32 28 22 28 29 53 60 56 63 53 67 52 27 40 34 25 34 39 34 36 30 29 27 17
203 218 240 218 162 173 225 250 193 192 260 240 211 233 246 230 226 183 252 303 285 345 56 350 317 311 297 97 58 61 75 73 56 65 59 52 59 67 71 60 45 54 49 48 37 29 26 31 32 34 34 34 37 33 32 28 29 37 37 36 39 38 35 33 28 27 27 33 32 29 39 40 36 29 29 28 18 16 13 14 9 356 22 40 40 30
281 265 153 119 141 175 196 262 238 158 235 302 229 205 214 212 230 245 337 17 12 333 335 67 352 313 287 288 158 155 57 59 43 68 55 51 45 46 56 54 47 51 45 51 46 36 29 37 36 36 35 36 35 34 26 27 34 38 38 39 39 40 37 34 32 33 43 45 46 40 39 37 39 39 27 26 15 16 19 3 349 9 12 4 7 21
212 235 169 205 158 164 186 210 242 149 198 192 270 190 205 191 179 112 26 60 307 221 273 61 72 264 322 324 183 168 94 84 50 63 65 48 46 48 56 54 49 46 43 41 47 39 42 33 43 42 39 33 36 27 21 31 35 39 43 42 43 43 38 32 36 37 47 51 50 54 58 57 55 61 35 25 27 30 20 33 27 20 20 20 16 5
165 268 211 204 189 172 176 248 237 163 148 228 252 121 114 119 139 197 110 149 233 261 305 1 163 239 304 272 190 165 117 113 89 76 67 63 61 58 61 53 52 47 42 48 46 46 42 42 44 48 40 39 40 29 33 36 35 40 41 46 46 47 44 37 34 41 40 57 53 55 53 48 45 47 39 27 26 32 31 38 26 25 21 23 26 25
159 200 173 179 184 190 214 212 184 161 148 216 186 128 135 154 180 142 160 218 218 22 283 324 342 288 253 263 21 164 135 166 141 132 100 88 70 70 64 59 52 44 45 39 50 46 40 39 37 40 40 27 38 38 39 33 31 35 39 47 50 48 44 37 40 45 43 50 55 59 57 57 41 40 35 32 37 36 29 41 26 27 21 21 23 24
305 204 215 159 146 206 223 242 173 159 187 259 163 102 69 67 68 124 123 105 334 85 260 229 190 233 273 269 317 336 246 199 179 154 137 126 117 92 82 62 58 46 37 36 43 48 47 40 43 39 45 39 29 32 43 41 37 36 40 47 52 48 45 40 42 47 47 46 48 52 49 52 41 33 34 42 39 36 31 40 31 27 27 20 23 19
265 312 159 120 199 208 142 80 150 190 151 121 90 77 5 39 45 36 73 95 51 264 248 211 203 177 290 262 209 155 217 174 136 126 137 126 111 83 75 74 64 62 40 40 42 39 46 40 51 43 52 44 36 32 40 45 45 42 46 49 56 48 48 45 47 50 51 50 49 53 50 50 44 34 35 36 33 29 32 33 29 28 24 27 25 22
340 349 161 254 105 103 110 81 13 51 77 110 86 115 30 333 11 32 341 44 126 269 263 227 189 164 194 289 294 279 328 193 163 165 162 155 148 134 101 86 72 58 72 62 57 44 32 44 42 45 53 46 42 44 47 50 50 50 50 51 60 47 43 44 45 51 51 52 52 55 54 54 49 46 44 42 38 29 34 30 28 19 24 20 20 22
291 242 244 315 231 145 108 85 331 19 18 83 83 49 101 261 32 302 25 289 208 225 263 133 119 50 245 223 298 333 341 334 122 155 156 150 146 134 126 108 97 94 86 79 73 71 52 51 54 57 58 54 46 45 45 47 50 50 50 49 59 47 39 43 45 52 51 52 49 49 51 51 49 49 48 46 44 33 36 30 30 26 25 15 18 12
272 291 321 271 331 212 131 155 209 80 228 116 145 137 105 223 207 255 262 237 303 289 270 150 200 269 251 296 13 324 339 334 105 113 124 134 138 140 138 130 116 98 78 92 84 76 73 59 68 73 73 63 53 48 49 50 53 51 53 50 59 52 42 42 48 48 52 50 50 49 53 54 52 53 49 45 44 31 36 33 34 33 27 21 18 4
273 334 268 149 234 197 161 195 183 164 162 203 131 152 182 146 155 219 204 215 228 222 285 269 49 228 141 239 333 355 342 46 83 100 104 107 120 132 135 133 136 128 141 135 121 115 107 96 84 82 78 73 66 59 55 54 56 58 55 53 57 55 41 46 46 45 48 45 41 43 47 50 49 52 54 51 53 46 39 29 34 27 20 22 2 3
214 229 259 237 271 151 181 209 114 102 51 175 159 77 95 230 135 199 204 158 246 317 321 212 199 207 148 287 279 18 39 57 77 106 119 123 132 134 137 153 162 161 156 159 132 108 99 105 96 86 79 82 81 71 68 64 62 62 61 62 63 64 56 53 52 49 51 47 46 46 48 46 50 48 50 47 41 42 49 38 41 25 21 12 357 347
44 284 282 329 46 165 193 148 220 136 207 212 103 199 210 178 112 56 357 53 73 51 254 147 308 304 232 236 29 24 77 70 90 106 123 141 156 153 163 169 175 174 158 158 133 128 115 90 83 78 76 71 69 65 61 61 59 67 62 58 56 54 54 51 50 53 48 47 45 39 45 36 40 42 42 37 32 33 29 39 29 24 358 343 356 340
159 240 295 128 233 261 209 143 93 20 150 101 174 232 160 110 114 127 217 326 70 194 267 96 208 264 135 285 115 131 130 189 180 171 162 171 174 173 191 182 182 178 174 169 156 134 127 116 97 88 79 80 81 75 64 60 61 64 68 62 59 49 48 40 43 41 38 33 34 26 23 25 25 27 25 23 15 12 23 24 26 14 7 359 344 345
127 276 286 238 133 299 10 111 34 348 30 146 194 212 114 260 255 322 86 262 262 256 266 287 215 239 187 222 129 236 195 201 193 191 182 192 198 194 189 198 194 179 161 152 149 139 133 119 105 107 104 92 88 89 87 74 67 61 60 62 68 63 59 52 45 43 36 39 33 25 14 16 7 3 6 1 2 358 3 4 2 360 352 340 339 341
83 179 293 340 140 272 37 94 204 216 349 33 41 53 296 103 173 138 204 191 134 267 315 287 342 264 198 206 182 205 203 184 175 189 204 195 192 186 189 190 187 179 173 166 160 156 141 132 128 120 117 108 92 83 81 86 68 63 60 61 54 48 38 35 32 32 30 16 30 6 8 359 1 354 351 345 358 357 357 351 348 344 345 343 337 338
220 130 233 290 302 78 183 187 208 172 171 153 135 276 315 14 226 105 351 141 185 192 210 272 289 272 264 200 187 211 196 182 178 189 189 190 196 201 197 186 183 182 173 174 166 158 153 150 151 146 151 127 89 90 100 100 105 93 67 68 63 62 31 30 12 21 5 10 1 14 357 348 348 346 340 345 349 349 339 338 338 335 330 331 335 336
146 196 214 344 153 212 235 248 211 179 184 167 172 202 181 142 213 248 260 75 127 183 236 230 258 273 252 89 235 253 218 168 192 165 158 192 205 200 198 198 185 178 176 169 176 168 167 169 162 155 109 99 108 107 95 91 96 66 58 30 26 36 36 46 328 306 300 339 358 351 336 342 340 346 345 347 340 342 338 336 338 333 338 335 326 335
157 154 112 207 196 201 211 335 277 187 121 175 152 229 171 148 112 143 245 248 26 254 124 191 275 264 126 264 270 232 167 167 162 166 182 194 195 195 197 189 186 181 173 180 176 172 170 169 167 169 159 149 145 145 129 113 135 171 199 354 354 84 300 218 284 328 342 337 343 341 350 346 345 347 338 342 328 333 328 328 329 330 330 321 316 318
83 108 203 277 331 326 339 318 24 47 90 74 359 77 120 177 183 190 221 193 176 278 245 262 231 257 240 274 289 142 153 162 168 179 181 187 188 193 189 185 186 179 180 171 164 162 165 158 154 133 150 155 155 165 192 204 233 256 267 294 12 197 305 346 353 341 9 2 349 353 349 350 331 346 328 334 321 326 318 322 315 312 307 291 294 296
108 276 118 347 332 336 349 346 11 355 51 122 235 316 79 86 74 121 91 114 181 206 223 194 252 244 65 353 8 80 124 157 171 191 180 180 193 197 193 192 186 175 164 161 159 160 149 145 159 170 173 182 195 215 217 239 357 6 7 20 9 9 10 27 10 24 17 30 9 338 350 325 331 334 327 322 322 313 310 307 304 302 298 297 294 289
115 194 124 164 215 233 241 191 243 249 224 235 205 302 281 123 135 101 229 184 231 202 194 226 252 279 318 359 358 30 159 203 212 204 219 200 199 200 196 188 179 169 172 162 155 151 161 175 173 179 190 202 206 39 38 57 95 92 72 52 48 59 44 33 36 40 41 18 17 331 349 336 346 339 334 329 327 324 318 313 309 307 302 303 304 304
168 148 175 197 202 237 231 193 240 115 95 164 267 158 222 156 184 129 128 200 206 332 285 244 224 266 278 217 214 235 218 203 214 227 220 227 230 222 205 186 178 172 166 166 163 171 165 164 190 200 204 151 76 115 107 102 94 83 78 63 49 50 53 38 40 24 30 8 13 6 1 355 348 341 340 343 334 330 327 324 324 325 322 323 319 316
87 209 233 199 238 232 147 172 193 131 172 225 204 260 226 211 182 170 199 222 144 115 259 246 225 204 252 261 221 212 222 239 246 236 237 246 235 208 196 183 171 162 168 162 167 169 178 193 199 201 123 103 123 108 121 91 83 88 88 78 59 51 50 30 31 21 16 9 6 2 346 341 330 340 343 336 330 325 325 327 329 328 323 325 321 319
150 206 282 133 260 140 146 129 134 81 224 232 247 253 266 250 189 188 216 209 188 225 254 268 260 212 259 255 229 177 205 216 219 222 220 219 220 168 157 178 180 178 175 174 186 187 187 198 198 154 131 137 138 125 122 121 93 89 84 77 55 43 34 14 22 13 3 358 1 357 340 345 346 347 341 331 331 334 334 334 327 322 320 318 317 317
89 270 182 107 227 320 126 139 204 173 219 247 239 244 243 246 259 255 240 228 213 233 250 260 264 262 254 261 263 218 209 205 217 219 202 212 212 195 186 185 183 183 179 186 191 195 198 189 152 147 145 152 140 151 146 129 114 89 80 61 44 40 14 20 15 11 3 5 360 351 353 352 352 350 348 348 347 344 340 338 336 334 332 329 327 323
113 260 102 305 75 295 324 273 209 178 185 242 254 252 248 258 272 237 238 250 249 259 254 251 257 265 265 263 204 247 207 188 301 247 224 222 204 187 187 187 186 184 186 191 190 188 170 154 149 147 149 158 161 157 147 132 129 110 76 56 40 26 10 21 12 16 9 360 358 353 352 351 347 348 348 348 342 340 341 339 338 334 330 329 329 328
73 242 56 67 89 299 321 98 308 56 345 251 270 263 250 245 255 245 234 218 210 230 237 245 255 255 266 269 208 261 141 172 202 216 221 218 196 184 185 187 181 184 187 188 182 161 155 157 163 163 165 165 155 141 133 114 88 76 60 46 34 12 2 20 21 14 9 356 352 350 348 343 343 347 343 342 337 336 336 333 330 329 325 324 327 326
165 135 126 100 124 259 271 36 18 41 13 314 259 249 244 234 236 259 262 230 225 226 229 229 238 242 252 269 296 257 187 216 207 202 207 222 207 185 181 182 186 185 184 177 167 169 170 172 173 167 160 146 135 121 108 120 103 85 87 51 8 8 19 22 22 12 3 355 347 343 341 346 348 341 334 332 332 329 327 325 321 320 322 319 319 319
120 137 156 169 137 241 21 100 45 65 259 245 322 129 185 220 221 226 241 243 244 185 214 211 235 246 262 264 244 260 239 211 195 219 201 176 172 188 195 186 188 182 178 176 173 173 177 169 170 167 153 142 133 124 121 103 102 102 95 62 18 27 21 19 10 14 348 348 340 339 352 346 342 328 323 322 321 320 315 314 309 308 307 306 309 310
164 170 161 165 155 210 160 59 241 242 246 255 343 298 178 206 200 215 238 248 238 226 235 255 263 252 232 225 229 239 246 220 193 159 190 189 157 170 177 189 186 178 175 175 177 177 174 174 166 144 136 140 139 133 119 93 91 102 63 31 25 24 24 14 3 351 333 331 331 354 340 336 324 316 314 314 312 311 307 305 305 305 304 304 304 308
183 155 145 139 119 44 114 182 215 237 273 328 287 167 112 115 237 262 302 265 242 224 212 222 238 241 241 243 255 259 154 162 65 299 251 242 188 174 174 191 193 180 177 184 174 182 175 179 171 163 149 139 128 118 108 110 109 96 77 59 47 31 20 6 350 326 322 320 327 336 325 320 311 308 307 307 306 304 304 303 301 304 306 301 297 291
170 115 157 221 175 197 211 202 235 351 317 292 281 243 156 206 183 162 236 265 235 199 187 197 233 244 235 262 96 136 120 67 56 305 266 252 233 207 185 193 175 186 181 183 178 181 186 170 152 142 132 133 127 123 116 117 111 100 86 44 34 42 358 353 319 303 304 312 315 313 312 309 306 304 303 302 302 301 300 303 303 299 300 298 297 298
182 178 220 186 260 145 169 248 309 292 250 259 255 248 351 204 137 183 175 284 279 254 199 168 212 226 157 142 152 154 84 69 295 270 254 257 243 184 215 184 178 172 177 175 166 139 134 130 118 130 135 131 115 111 115 112 108 89 46 21 8 7 316 305 277 275 294 301 302 301 302 304 301 299 300 298 296 296 297 296 293 291 295 293 299 298
0 114 177 193 204 140 174 211 223 228 243 218 231 233 250 184 140 114 107 268 273 192 201 160 132 168 171 159 183 146 109 201 241 238 244 223 231 187 156 183 177 186 184 174 166 161 157 149 142 138 128 126 123 123 121 113 95 74 34 317 287 281 281 268 268 269 284 289 293 291 293 295 294 293 294 294 292 294 295 296 293 293 292 284 285 287
151 132 138 209 215 219 216 224 231 222 253 271 223 194 194 114 87 65 335 274 261 218 200 167 193 178 200 201 163 164 176 212 242 247 211 208 196 198 170 177 187 180 187 162 156 152 145 139 127 129 136 137 136 130 124 111 97 101 212 247 242 265 258 255 254 272 278 282 283 285 286 285 288 287 288 290 292 291 287 290 293 291 292 288 284 289
164 271 211 209 217 226 224 237 289 281 257 195 178 224 226 180 74 155 229 233 230 207 209 181 189 198 183 170 167 186 224 208 212 209 189 200 160 204 241 204 187 181 173 169 160 145 144 154 150 152 151 136 133 134 136 123 124 185 215 224 244 249 250 254 263 272 273 278 282 281 281 281 280 285 282 279 286 289 288 286 287 292 290 291 290 284
343 81 320 325 226 225 226 233 233 266 233 179 260 176 174 106 229 225 235 196 156 208 212 193 201 212 181 183 193 205 220 217 201 161 181 194 199 204 183 165 122 90 63 119 147 149 142 135 126 120 119 129 141 145 135 129 141 207 217 225 242 248 252 256 262 267 276 279 281 282 283 281 278 274 278 282 283 287 286 282 280 284 289 288 291 292
189 147 208 207 207 59 123 240 252 252 255 144 150 45 246 160 233 204 198 249 202 200 182 208 205 218 179 209 210 214 228 214 209 207 204 204 203 205 174 161 164 166 163 152 164 176 149 145 151 154 152 146 145 145 152 126 169 217 222 238 249 246 252 255 264 274 276 283 282 282 282 280 279 280 279 280 278 280 285 288 289 286 285 290 292 290
206 108 239 252 182 165 191 206 203 224 187 177 143 187 213 206 197 176 147 241 220 181 193 198 223 209 198 197 205 220 225 225 243 227 221 229 226 224 190 186 181 170 166 171 162 161 153 146 149 145 149 149 150 151 152 147 191 215 226 247 254 251 252 268 279 284 284 281 281 283 282 278 278 275 275 277 280 278 281 288 288 287 287 288 289 294
206 193 178 186 211 153 198 217 244 231 196 200 188 208 207 219 197 179 177 188 185 235 201 195 220 215 203 208 213 205 220 223 223 209 193 209 204 203 193 194 184 181 180 175 171 161 153 155 158 152 162 167 163 172 176 185 182 216 235 249 221 264 270 277 280 287 283 281 282 281 279 280 277 279 275 274 274 281 285 286 291 294 290 289 290 289
272 192 38 71 254 241 262 192 243 231 218 214 223 215 213 235 218 165 184 215 231 216 174 196 220 215 211 206 206 234 225 228 222 228 222 219 202 208 201 179 169 154 146 137 142 157 145 132 137 149 168 194 181 194 197 208 185 214 235 241 260 265 268 274 284 284 279 280 280 280 285 287 284 276 273 272 269 268 275 282 292 290 292 291 286 286
262 164 137 189 253 101 268 156 191 222 200 201 210 230 242 255 228 187 207 217 231 223 213 223 216 212 211 197 203 219 231 229 226 228 217 211 205 201 192 189 188 176 172 175 169 145 142 145 150 170 174 198 220 201 220 216 222 219 249 267 268 268 269 275 274 275 278 280 281 283 283 283 287 290 285 284 281 274 276 281 279 283 287 286 288 287
303 170 163 228 229 215 238 218 222 225 210 209 203 217 238 244 245 223 210 218 222 229 209 217 211 232 220 208 213 217 236 236 222 227 213 209 204 197 193 194 182 171 179 158 153 154 146 157 168 175 181 203 216 196 210 225 240 247 253 262 265 264 271 274 268 270 276 282 285 285 281 279 280 287 296 289 288 293 292 282 278 280 282 288 287 291
186 85 232 181 205 254 299 273 247 253 285 276 257 230 231 228 229 246 236 231 235 237 241 241 204 218 214 227 225 220 233 245 226 218 210 206 200 194 199 197 190 179 158 156 163 157 170 169 172 181 180 207 191 189 212 243 254 253 250 258 264 263 268 267 268 272 280 282 285 283 282 282 289 291 292 296 288 274 272 287 289 282 277 265 262 268
95 246 209 100 219 211 211 235 197 214 255 249 245 237 230 227 224 238 250 250 240 239 243 245 244 225 225 230 226 222 226 240 232 207 208 202 196 199 195 180 171 161 165 156 145 155 151 159 166 174 184 203 183 197 217 248 254 253 255 262 263 256 256 266 275 280 281 283 284 287 292 294 294 292 291 292 298 300 293 277 291 290 291 291 292 295
210 233 192 191 204 238 235 232 212 211 236 244 250 246 209 213 205 221 235 240 241 232 232 237 253 262 237 236 223 214 224 226 229 199 206 198 210 197 185 171 165 169 165 155 142 155 160 173 162 157 176 207 194 209 219 242 256 262 266 253 255 245 250 264 277 277 282 289 290 294 300 299 296 295 292 292 297 298 302 309 306 302 298 296 301 303